Jackpot

Texas Poker Multi Jackpot System

Kini Telah hadir Jackpot SUPER ROYAL FLUSH

Kini Telah hadir Jackpot 2000 (khusus table VIP keatas).

Ikutilah global jackpot yang tersedia di system kami, dengan system jackpot terbaru dan pertama di indonesia, anda dapat membeli jackpot dengan harga 100 rupiah saja dan menangkan hadiahnya hingga puluhan juta rupiah.

Jackpot bukanlah suatu keharusan untuk dibeli, namun kami memberikan suatu fitur tambahan untuk member tercinta dari www.pasangpoker.com.

Terdapat tiga pilihan harga jackpot yang bisa anda beli yaitu :100,500,1000 dan 2000(khusus table VIP Keatas) rupiah.

Hadiah dari Multi jackpot system www.pasangpoker.com

  1. full house x 10 harga jackpot yang anda beli.
      (contoh:anda membeli 1000 maka:1000 X10 = 10.000)
  2. four of kind x 250 harga jackpot yang anda beli
      (contoh:anda membeli 1000 maka:1000 X250 = 250.000)
  3. Straight flush x 1200
      (contoh:anda membeli 1000 maka:1000 X1200 = 1.200.000)
  4. Royal flush x 10000 harga jackpot yang anda beli
      (contoh:anda membeli 1000 maka:1000 X10000 = 10.000.000)
  5. SUPER ROYAL FLUSH x 30000 harga jackpot yang anda beli
      (contoh:anda membeli 1000 maka:1000 X30000 = 30.000.000)

Kondisi kartu

  1. full house adalah kondisi kartu dimana kartu anda dan kartu tengah dengan total 7 kartu bisa mendapatkan nilai 5 kartu dengan kombinasi 1 tris(three of kind) dan 1 pair, contoh 3 kartu 10 dan 2 kartu 5
  2. Four of kind adalah kondisi kartu dimana kartu anda dan kartu tengah dengan total 7 kartu bisa mendapatkan nilai 5 kartu dengan kombinasi 4 kartu yang sama jumlah dan 1 kartu apapun juga contoh anda mendapatkan 4 buah kartu angka 3 dan 1 kartu apapun.
  3. Staright flush adalah kondisi kartu dimana kartu anda dan kartu tengah dengan total 7 kartu bisa mendapatkan nilai 5 kartu dengan kombinasi seri / staright dengan kembang yang sama contoh : urutan kartu dari angka 5, 6, 7, 8 , 9 10 dengan kembang yg sama misalnya as hati
  4. Royal flush adalah kondisi kartu dimana kartu anda dan kartu tengah dengan total 7 kartu bisa mendapatkan nilai 5 kartu dengan kombinasi seri / staright dengan kembang yang sama tetapi kartu tersebut haruslah dimulai dari 10. contoh 10, Queen, Jack, King dan aces dengan kembang yang sama
  5. Super Royal flush adalah kondisi kartu dimana Kedua kartu anda digabung dengan 3 kartu pertama meja haruslah royal flush. contoh kartu anda 10,Queen kembang sama dan 3 kartu pertama meja adalah Jack, King dan aces dengan kembang yang sama

Demikian adalah penjelasan dari Multi Jackpot www.pasangpoker.com terima kasih dan selamat bermain salam hoki dari kami

Texas Poker Jackpot Winner

TOP SUPER ROYAL FLUSH
No.TanggalNamaPriceWin
123/02 23:52ANDY55555Super Royal flush15,000,000
223/02 21:49LIASWEETSuper Royal flush15,000,000
323/02 18:34ADE_85Super Royal flush15,000,000
423/02 12:45VIVO098Super Royal flush6,000,000
523/02 11:34DFEA84BDSuper Royal flush6,000,000
TOP ROYAL FLUSH
No.TanggalNamaPriceWin
124/02 00:52OTM5TLLOLARoyal flush10,000,000
224/02 00:43MRS_QQRoyal flush2,000,000
324/02 00:35CHOLLYRoyal flush20,000,000
424/02 00:35MPKFOOVCP2Royal flush1,000,000
524/02 00:33OJO1234Royal flush5,000,000
TOP STRAIGHT FLUSH
No.TanggalNamaPriceWin
124/02 00:51FIXEDNPXYZStraight Flush600,000
224/02 00:49COMROS12Straight Flush240,000
324/02 00:46RIO845Straight Flush1,200,000
424/02 00:45MMEM3KKStraight Flush240,000
524/02 00:45AS99QQStraight Flush1,200,000
LATEST JACKPOT
No.TanggalNamaPriceWin
124/02 00:53PAVAROTTIFull House2,000
224/02 00:53DECSFKFull House5,000
324/02 00:53ISENGPOK3RFull House1,000
424/02 00:53DJENKOLLFull House5,000
524/02 00:53NOPHP234Full House2,000
624/02 00:53WAJIKTEMPEFour Of A Kind25,000
724/02 00:53BUNG41504Four Of A Kind50,000
824/02 00:53MEAZZA777Four Of A Kind50,000
924/02 00:53RYO12345Four Of A Kind50,000
1024/02 00:53ONOT99Four Of A Kind50,000
1124/02 00:53HOTMA33Four Of A Kind50,000
1224/02 00:53ZARGO87Full House2,000
1324/02 00:53MESAK0303Full House2,000
1424/02 00:53KASDUT17Full House20,000
1524/02 00:53DANDA99Full House10,000
1624/02 00:53RESFECT99Full House2,000
1724/02 00:53MATICJAZZFull House10,000
1824/02 00:53ISNIARTO20Full House5,000
1924/02 00:53ABOTCHANFull House10,000
2024/02 00:53OCHA2488Full House1,000
2124/02 00:53XBP334B6C6Full House2,000
2224/02 00:53JOSSSS75Full House5,000
2324/02 00:53ASAGASFull House2,000
2424/02 00:53PARUK72Full House1,000
2524/02 00:53LISHYAFull House10,000
2624/02 00:53EDO966Full House5,000
2724/02 00:53RIZKA_99Full House2,000
2824/02 00:53KINYANGAIRFull House2,000
2924/02 00:53BRAVO7373Full House5,000
3024/02 00:53RIMBA_19Full House10,000
3124/02 00:53HORREEEFull House1,000
3224/02 00:53CARDDDFull House2,000
3324/02 00:53BAKURIU999Full House500
3424/02 00:53AN3124Full House2,000
3524/02 00:53DJ3NGGOT__Full House2,000
3624/02 00:53B7E7880DFull House5,000
3724/02 00:53FA11C09TW2Full House5,000
3824/02 00:53ACAYCOSTA0Full House2,000
3924/02 00:53VHIGOOOFull House5,000
4024/02 00:53FD502612Full House2,000
4124/02 00:53YGCC3D7BCEFull House2,000
4224/02 00:53ONTOHOD03Full House2,000
4324/02 00:53D3883MBFull House5,000
4424/02 00:53D1619VBJFull House10,000
4524/02 00:53MATHEUS01Full House2,000
4624/02 00:53SIXGOODFull House2,000
4724/02 00:53ZONE48Full House2,000
4824/02 00:53XQ02FCCW5RFull House2,000
4924/02 00:53GHAZ99Full House5,000
5024/02 00:53DEXSA18Full House5,000

Domino Multi Jackpot System

Ikutilah global jackpot yang tersedia di system kami, dengan system jackpot terbaru dan pertama di indonesia, anda dapat membeli jackpot dengan harga 100 rupiah saja dan menangkan hadiahnya hingga puluhan juta rupiah.

Jackpot bukanlah suatu keharusan untuk dibeli, namun kami memberikan suatu fitur tambahan untuk member tercinta dari www.pasangpoker.com.

Terdapat tiga pilihan harga jackpot yang bisa anda beli yaitu :100,500 dan 1000 rupiah.

Hadiah dari Multi jackpot system www.pasangpoker.com

  1. Murni Kecil x 50 harga jackpot yang anda beli.
      (contoh:anda membeli 1000 maka:1000 X 50 = 50.000)
  2. Murni Besar x 50 harga jackpot yang anda beli
      (contoh:anda membeli 1000 maka:1000 X 50 = 50.000)
  3. BALAK x 100 harga jackpot yang anda beli
      (contoh:anda membeli 1000 maka:1000 X 100 = 100.000)
  4. ENAM DEWA x 6666 harga jackpot yang anda beli
      (contoh:anda membeli 1000 maka:1000 X 6666 = 6.666.000)

Demikian adalah penjelasan dari Multi Jackpot www.pasangpoker.com terima kasih dan selamat bermain salam hoki dari kami

Domino Jackpot Winner

TOP ENAM DEWA
No.TanggalNamaPriceWin
124/02 00:38MEGAYANImurni enam666,600
224/02 00:28KODAU92murni enam666,600
323/02 23:56SINDI123murni enam6,666,000
423/02 23:17SEKIAN678murni enam3,333,000
523/02 22:21QWERTYPLUSmurni enam6,666,000
TOP BALAK
No.TanggalNamaPriceWin
124/02 00:53SAFRAN77balak100,000
224/02 00:52TINA2006balak100,000
324/02 00:51CL321balak10,000
424/02 00:50SUPERTOP10balak100,000
524/02 00:49MJANUARbalak50,000
LATEST JACKPOT
No.TanggalNamaPriceWin
124/02 00:53WEWEE_99lucky9910,000
224/02 00:53SAFRAN77balak100,000
324/02 00:52QQ_BOmurni besar50,000
424/02 00:52TINA2006balak100,000
524/02 00:52KALBU1313murni besar25,000
624/02 00:51CL321balak10,000
724/02 00:51CSDH6QZWM4lucky9910,000
824/02 00:50LUCKBEJO88murni besar25,000
924/02 00:50VZZUH74THJmurni besar25,000
1024/02 00:50SUPERTOP10balak100,000
1124/02 00:50NGABENGXXmurni besar25,000
1224/02 00:49RIDAR46murni kecil25,000
1324/02 00:49MJANUARbalak50,000
1424/02 00:48JNCK19murni besar5,000
1524/02 00:47HAI12KHO53murni kecil50,000
1624/02 00:47TOMATUAmurni besar50,000
1724/02 00:47HSGSGDmurni besar25,000
1824/02 00:47TEJEF21murni kecil25,000
1924/02 00:46TUPANGAC19murni kecil5,000
2024/02 00:46UBAN_21balak100,000
2124/02 00:46CFN8WOJWIWmurni kecil25,000
2224/02 00:46BAGIDONK21balak10,000
2324/02 00:45O9V141458Slucky9910,000
2424/02 00:44MIAN13murni besar5,000
2524/02 00:44BAGIDONK21murni kecil5,000
2624/02 00:44NTUL99lucky9925,000
2724/02 00:44M3L3S3T1lucky992,500
2824/02 00:43DEDY199balak50,000
2924/02 00:43TONI2805balak10,000
3024/02 00:42FLY4WAYmurni kecil25,000
3124/02 00:42UBUL12balak10,000
3224/02 00:42GOJAL1lucky9910,000
3324/02 00:41AC312murni besar50,000
3424/02 00:41INDUK04murni kecil50,000
3524/02 00:40SECRET26murni besar25,000
3624/02 00:40ZUK1OT8K98murni kecil50,000
3724/02 00:40MJIRIN11murni kecil5,000
3824/02 00:40DDHEFRISbalak100,000
3924/02 00:40AAHAU1GOmurni kecil5,000
4024/02 00:40DIJOSRAbalak100,000
4124/02 00:39RAWIT66murni besar50,000
4224/02 00:39SIKECIL95murni kecil5,000
4324/02 00:39AWERAWERXXmurni kecil50,000
4424/02 00:39HANIFUDIN4murni kecil50,000
4524/02 00:39KERVI87murni kecil50,000
4624/02 00:38BOCAHKSbalak100,000
4724/02 00:38MEGAYANImurni enam666,600
4824/02 00:38AMI1995murni besar50,000
4924/02 00:37MIRZA193murni kecil50,000
5024/02 00:37PICHIZZmurni besar5,000

Ceme Multi Jackpot System

Jackpot dilihat dari gabungan kartu pemain dengan kartu bandar. Bandar harus membeli jackpot sebanyak jumlah player yang sedang duduk. Sebagai contoh bila terdapat 3 pemain duduk bermain, dan bandar memutuskan untuk membeli jackpot Rp 1.000, maka pada periode tersebut bandar akan membeli jackpot sebanyak 3xRp1.000 = Rp3.000.

Jackpot bukanlah suatu keharusan untuk dibeli, namun kami memberikan suatu fitur tambahan untuk member tercinta dari www.pasangpoker.com.

Terdapat tiga pilihan harga jackpot yang bisa anda beli yaitu :100,500 dan 1000 rupiah.

Hadiah dari Multi jackpot system www.pasangpoker.com

  1. Murni Kecil x 50 harga jackpot yang anda beli.
      (contoh:anda membeli 1000 maka:1000 X 50 = 50.000)
  2. Murni Besar x 50 harga jackpot yang anda beli
      (contoh:anda membeli 1000 maka:1000 X 50 = 50.000)
  3. BALAK x 200 harga jackpot yang anda beli
      (contoh:anda membeli 1000 maka:1000 X 200 = 200.000)
  4. ENAM DEWA x 6666 harga jackpot yang anda beli
      (contoh:anda membeli 1000 maka:1000 X 6666 = 6.666.000)

Demikian adalah penjelasan dari Multi Jackpot www.pasangpoker.com terima kasih dan selamat bermain salam hoki dari kami

Ceme Jackpot Winner

TOP ENAM DEWA
No.TanggalNamaPriceWin
124/02 00:53BLUES_86murni enam666,600
224/02 00:51PADIKU99murni enam3,333,000
324/02 00:41JOHHAN10murni enam666,600
424/02 00:28NAYA555murni enam6,666,000
524/02 00:22ASKOTmurni enam3,333,000
TOP BALAK
No.TanggalNamaPriceWin
124/02 00:53YD50TO7QTBbalak20,000
224/02 00:52THEBAONK76balak100,000
324/02 00:52STEMPLETbalak200,000
424/02 00:52LZ103026balak200,000
524/02 00:51TRIBROTbalak100,000
LATEST JACKPOT
No.TanggalNamaPriceWin
124/02 00:53JIANGZHU77murni besar5,000
224/02 00:53FERY25murni besar50,000
324/02 00:53GAGAN23murni besar5,000
424/02 00:53HOYAAAAmurni besar25,000
524/02 00:53MAKBAR66murni besar5,000
624/02 00:53BALQIS_09murni kecil50,000
724/02 00:53AW4N123murni kecil50,000
824/02 00:53ABIENFCmurni kecil50,000
924/02 00:53ZYZYXXXmurni besar50,000
1024/02 00:53VO1HFU7KGOmurni besar25,000
1124/02 00:53BLUES_86murni enam666,600
1224/02 00:53TON_Nmurni besar50,000
1324/02 00:53YD50TO7QTBbalak20,000
1424/02 00:53MASPIT14murni kecil50,000
1524/02 00:52GUNSKY54murni kecil50,000
1624/02 00:52CHELAY3789murni kecil50,000
1724/02 00:52DADANDMOMmurni kecil25,000
1824/02 00:52DONIWAHYUDmurni kecil50,000
1924/02 00:52BOYUDmurni kecil5,000
2024/02 00:52LEVIN3murni kecil50,000
2124/02 00:52WILKIWIL16murni kecil25,000
2224/02 00:52MANDRA110murni kecil50,000
2324/02 00:52UZIIK8murni kecil5,000
2424/02 00:52THEBAONK76balak100,000
2524/02 00:52STEMPLETbalak200,000
2624/02 00:52MTN3murni kecil50,000
2724/02 00:52HJK597665murni kecil50,000
2824/02 00:52UDIN_RPK99murni kecil50,000
2924/02 00:52AGE37murni besar50,000
3024/02 00:52RI888999murni kecil25,000
3124/02 00:52R4HM4D1murni kecil50,000
3224/02 00:52ASHTET1922murni besar50,000
3324/02 00:52LZ103026balak200,000
3424/02 00:51PENUHHARAPmurni besar25,000
3524/02 00:51TRIBROTbalak100,000
3624/02 00:51QIAN27balak100,000
3724/02 00:51TRIBROTmurni kecil25,000
3824/02 00:51GGARUDA1RImurni kecil25,000
3924/02 00:51GADUNJUNIObalak200,000
4024/02 00:51NOODLEbalak200,000
4124/02 00:51UYUTBAONGmurni kecil5,000
4224/02 00:51SDF123murni kecil50,000
4324/02 00:51ASMURATIKmurni kecil50,000
4424/02 00:51IPUNK193murni kecil50,000
4524/02 00:51LB888393murni kecil25,000
4624/02 00:51BTK378balak200,000
4724/02 00:51M4M4TTIKbalak20,000
4824/02 00:51LAKSANA36murni kecil50,000
4924/02 00:51ASKOTmurni besar25,000
5024/02 00:51RG123AHZ1murni kecil50,000